SCP
0 0 -0 0 0 0 0 0 0 0 0 0 0 0 0 0 -0 -0 -0 -0 -0 0 0 0 0 0 0 0 0 0 0 0 0 0 0 0 0 0 0 0 -0 -0 0 -0 -0 -0 0
0 -0 0 0 0 0 0 0 0 0 0 0 0 0 0 0 -0 -0 -0 -0 -0 -0 0 0 0 0 0 0 0 0 0 0 0 0 0 0 0 0 0 0 0 0 -0 -0 -0 -0 0
-0 0 0 0 0 0 0 0 0 0 0 0 0 0 0 0 -0 -0 -0 -0 -0 -0 -0 0 0 0 0 0 0 0 0 0 0 0 0 0 0 0 0 0 0 0 -0 -0 -0 -0 0
-0 0 0 0 0 0 0 0 0 0 0 0 0 0 0 0 -0 -0 -0 -0 -0 -0 -0 -0 0 0 0 0 0 0 0 0 0 0 0 0 0 0 0 0 0 0 0 0 -0 -0 -0
0 0 0 0 0 0 0 0 0 0 0 0 0 0 -0 -0 -0 -0 -0 -0 -0 -0 -0 -0 -0 0 0 0 0 0 0 0 0 0 0 0 0 0 0 0 0 0 -0 0 0 -0 0
0 0 0 0 0 0 0 0 0 0 0 0 0 -0 -0 -0 -0 -0 -0 -0 0 0 0 -0 -0 0 0 0 0 0 0 0 0 0 0 0 0 0 0 0 0 0 0 -0 -0 -0 -0
0 0 0 0 0 0 0 0 -0 -0 0 -0 -0 -0 -0 0 -0 -0 -0 0 0 0 0 0 0 0 0 0 0 0 0 0 0 0 0 0 0 0 0 0 0 0 0 0 -0 -0 -0
0 0 0 0 0 0 0 0 -0 -0 -0 -0 -0 -0 -0 -0 -0 -0 0 0 0 0 -0 -0 0 0 0 0 0 0 0 0 0 0 0 0 0 0 0 0 0 0 0 0 0 -0 -0
0 0 0 0 0 0 -0 -0 -0 -0 -0 -0 -0 -0 -0 0 -0 0 0 0 0 0 -0 -0 -0 -0 -0 0 0 0 0 0 0 0 0 0 0 0 0 0 0 0 0 0 0 -0 -0
0 0 0 0 -0 -0 -0 -0 -0 -0 -0 -0 -0 -0 -0 -0 0 0 0 0 0 0 0 -0 -0 -0 -0 0 0 0 -0 0 0 0 0 0 0 0 0 0 0 0 0 0 0 -0 0
0 0 -0 -0 -0 -0 -0 -0 -0 -0 -0 -0 -0 -0 0 0 -0 0 0 0 0 0 -0 -0 -0 -0 -0 0 0 0 -0 0 0 0 0 0 0 0 0 0 0 0 0 0 0 0 0
-0 -0 -0 -0 0 -0 -0 -0 -0 -0 -0 -0 -0 -0 0 0 0 0 0 0 0 -0 -0 0 -0 0 -0 -0 -0 0 -0 0 0 0 0 0 0 0 0 0 0 0 0 0 0 0 0
-0 -0 -0 -0 -0 -0 -0 -0 -0 -0 -0 -0 0 0 0 -0 0 0 0 0 -0 -0 -0 0 -0 0 0 -0 0 -0 -0 0 0 0 0 0 0 0 0 0 0 0 0 0 0 0 0
-0 -0 -0 -0 -0 -0 -0 -0 -0 -0 0 -0 -0 -0 0 0 0 0 0 0 -0 -0 0 -0 0 0 -0 0 0 -0 -0 0 0 0 0 0 0 0 0 0 0 0 0 0 0 0 0
-0 -0 -0 -0 -0 -0 -0 -0 -0 0 0 -0 -0 0 0 0 0 0 0 -0 0 0 -0 0 0 -0 0 0 0 0 -0 0 0 0 0 0 0 0 0 0 0 0 0 0 0 0 0
-0 -0 -0 -0 -0 -0 0 0 0 0 -0 -0 -0 0 -0 0 0 0 0 0 0 0 -0 -0 -0 0 0 0 0 -0 0 0 0 0 0 0 0 0 0 0 0 0 0 0 0 0 0
-0 -0 0 0 -0 -0 0 0 0 0 -0 -0 -0 0 0 0 0 0 0 0 0 0 -0 -0 0 0 0 0 0 0 0 0 0 0 0 0 0 0 0 0 0 0 0 0 0 0 0
0 0 0 -0 -0 -0 0 0 0 -0 -0 -0 -0 0 0 0 0 0 0 0 0 0 -0 -0 -0 -0 0 0 0 0 0 0 0 0 0 0 0 0 0 0 0 0 0 0 0 0 0
0 0 -0 -0 -0 -0 0 0 0 -0 -0 -0 -0 0 0 0 -0 0 0 0 0 -0 -0 -0 -0 -0 0 0 0 0 0 0 0 0 0 0 0 0 0 0 0 0 0 0 0 0 0
0 0 -0 0 -0 0 0 0 0 -0 -0 0 -0 0 0 0 -0 -0 -0 0 0 0 0 -0 -0 0 0 0 0 0 0 0 0 0 0 0 0 0 0 0 0 0 0 0 0 0 0
0 -0 -0 0 0 0 0 0 0 -0 -0 0 -0 0 0 0 0 0 -0 -0 -0 -0 0 -0 0 -0 0 0 0 0 0 0 0 0 0 0 0 0 0 0 0 0 0 0 0 0 0
0 -0 -0 0 0 0 0 0 -0 -0 -0 0 -0 -0 0 0 0 0 0 0 0 0 -0 0 0 0 0 0 0 0 0 0 0 0 0 0 0 0 0 0 0 0 0 0 0 0 0
0 0 -0 0 0 -0 0 0 -0 -0 -0 0 0 0 0 0 -0 0 0 0 0 0 0 0 -0 -0 0 0 0 0 0 0 0 0 0 0 0 0 0 0 0 0 0 0 0 0 0
0 0 0 0 0 0 0 0 -0 -0 -0 0 0 0 -0 0 0 0 -0 0 0 0 0 0 0 -0 0 0 0 0 0 0 0 0 0 0 0 0 0 0 0 0 0 0 1 1 1
0 0 0 0 0 0 0 0 -0 -0 -0 0 0 0 0 0 0 -0 -0 0 0 0 0 0 0 0 -0 -0 -0 -0 0 0 0 0 0 0 0 0 0 0 0 0 0 0 0 1 1
0 0 0 0 0 0 0 0 0 -0 -0 0 0 0 0 -0 0 -0 -0 0 -0 0 0 0 0 0 -0 -0 0 -0 0 0 0 0 0 0 0 0 0 0 0 0 0 0 0 0 0
0 0 0 0 0 0 0 0 -0 -0 -0 0 0 0 0 -0 0 0 0 0 0 0 0 0 0 0 -0 0 0 0 0 0 0 0 0 0 0 0 0 0 0 0 0 0 0 0 0
0 0 0 0 0 0 0 0 0 -0 -0 0 0 0 0 0 0 0 0 0 0 0 0 -0 0 -0 -0 0 0 0 0 0 0 0 0 0 0 0 0 0 0 0 0 0 0 0 0
0 0 0 0 0 0 0 0 0 -0 -0 0 0 0 0 0 0 0 0 0 0 -0 -0 0 0 -0 -0 0 0 0 0 0 0 0 0 0 0 0 0 0 0 0 0 0 0 0 0
Wind_Speed_500mb
30 28 26 25 26 28 31 31 29 26 27 30 33 30 28 24 18 14 12 12 13 15 15 12 9 8 8 11 11 11 5 23 38 41 46 40 34 26 18 14 18 8 7 20 33 46 33
29 28 25 24 24 26 28 30 30 28 27 28 31 29 27 24 21 18 15 13 12 12 11 9 7 7 7 18 13 13 10 30 38 37 43 37 29 22 14 14 20 9 15 35 40 30 13
32 26 24 23 22 23 24 27 28 28 27 27 29 26 24 24 26 26 24 23 21 15 9 5 6 9 13 9 5 7 19 32 36 29 37 32 22 23 8 16 10 19 16 24 42 30 12
34 29 24 23 22 21 21 22 26 27 26 25 25 22 18 20 23 26 25 22 20 16 16 6 2 7 8 9 10 5 20 32 36 26 28 24 15 17 17 6 14 22 17 14 28 31 23
35 32 26 23 22 21 20 21 22 23 25 24 23 20 17 17 20 25 26 23 23 7 9 9 5 3 8 3 7 19 19 30 37 22 16 20 13 22 16 23 20 20 16 21 22 43 26
39 31 28 22 20 21 21 19 20 22 24 24 22 19 16 16 17 21 24 23 20 7 12 7 2 7 5 10 16 23 18 31 34 27 19 20 23 21 20 21 24 25 18 28 27 22 35
45 31 27 24 20 19 19 17 18 21 23 23 23 21 19 15 14 14 16 18 13 1 10 10 6 9 9 10 21 21 28 24 27 31 21 28 23 34 35 28 15 13 15 20 24 24 28
37 32 24 25 20 18 17 16 17 21 23 24 24 22 22 15 11 5 9 6 10 13 13 7 9 13 11 10 21 28 28 20 28 28 24 18 30 31 25 17 15 18 20 26 23 33 15
34 32 25 24 21 17 16 15 16 19 23 26 25 23 23 14 6 1 9 7 18 17 12 7 4 6 13 16 21 39 33 16 26 29 32 26 18 18 24 24 20 15 17 26 27 27 18
37 33 25 23 20 18 18 15 15 19 23 27 27 25 19 10 4 6 4 17 28 16 8 13 10 9 11 14 15 32 35 16 14 27 29 22 13 28 29 30 24 22 3 11 25 30 12
37 29 24 23 21 20 19 15 16 19 24 27 24 23 11 4 2 4 11 24 22 4 1 7 11 3 7 12 32 29 35 18 20 21 20 16 22 35 33 29 20 11 11 15 24 8 19
29 26 25 26 21 22 19 16 17 20 25 26 23 15 7 3 2 5 17 24 4 13 10 5 3 2 15 19 15 37 36 23 2 16 28 2 28 26 25 19 20 3 18 13 8 7 15
27 29 30 26 22 23 20 19 18 22 24 23 18 7 7 5 3 14 20 7 12 10 4 8 7 5 7 16 18 31 33 30 18 21 27 15 25 18 19 28 24 25 27 14 16 13 7
34 34 31 26 23 23 22 21 21 24 22 20 7 5 1 6 11 13 12 15 8 6 9 6 7 8 10 8 18 25 30 27 11 23 22 27 28 31 23 27 25 35 35 16 20 19 18
33 35 32 28 24 24 24 22 25 24 21 12 8 6 5 8 5 5 15 4 9 7 9 15 10 10 12 14 6 18 24 25 23 18 16 24 23 36 21 27 21 32 37 33 30 12 20
34 35 32 29 26 25 25 24 27 23 18 6 9 7 7 8 8 1 6 10 7 9 11 8 12 6 9 13 17 18 20 10 13 12 21 6 20 24 32 31 33 29 28 27 18 20 25
33 35 32 29 25 26 26 26 27 24 12 4 8 8 3 10 8 6 8 13 6 9 11 11 12 8 4 6 18 13 7 8 9 21 14 17 17 24 28 31 33 22 26 28 28 28 17
33 35 32 29 27 26 26 27 28 25 11 5 3 5 0 8 7 4 10 8 5 9 6 3 7 9 7 8 2 7 9 14 10 16 21 21 15 16 37 26 25 42 34 35 23 23 23
33 33 32 28 26 24 24 25 26 26 13 7 2 8 2 5 3 5 8 5 8 14 16 11 7 10 6 2 2 4 5 9 18 11 6 11 17 18 16 19 17 28 32 36 40 34 31
34 31 30 26 26 23 21 21 23 24 15 6 4 8 7 5 5 8 1 3 2 8 8 7 11 5 7 7 5 8 3 9 12 9 5 8 8 22 7 28 32 35 23 32 26 25 28
33 30 29 24 22 21 19 19 21 20 14 6 1 5 4 4 7 4 3 5 8 9 5 12 5 13 7 1 17 23 15 20 9 6 4 6 4 10 10 12 8 16 30 30 30 36 25
35 31 27 22 19 19 18 15 18 17 12 8 2 5 4 7 6 8 4 6 8 7 13 8 7 12 13 15 14 4 6 7 7 13 3 10 4 6 12 9 9 17 9 12 9 12 15
36 31 26 21 17 17 17 12 12 16 11 5 3 7 4 9 7 7 5 3 5 0 7 12 9 7 6 13 9 5 5 5 6 10 9 4 10 9 16 1 14 21 13 9 5 3 12
33 32 27 21 16 16 14 12 9 10 11 8 2 2 8 10 8 6 9 6 5 7 7 10 7 9 7 8 2 3 6 3 6 12 3 12 6 12 6 8 21 17 8 9 9 8 6
37 31 28 23 13 15 13 10 9 6 5 9 8 1 5 6 7 14 12 6 8 4 2 8 8 6 9 7 12 9 13 11 9 8 10 0 6 6 10 19 12 8 15 14 14 11 11
43 34 28 24 15 12 13 10 8 7 4 4 9 7 3 5 11 13 12 6 8 2 10 4 2 6 5 7 8 11 4 3 5 12 3 5 2 11 15 7 14 13 10 14 14 8 19
41 36 29 24 21 12 13 11 8 8 5 2 5 3 4 7 11 13 5 2 0 6 6 4 2 6 7 4 3 4 5 5 6 8 2 6 6 11 8 10 15 10 11 5 11 9 22
39 36 31 28 24 17 14 14 10 10 8 7 6 4 9 4 12 8 7 5 6 7 9 10 9 10 7 6 4 4 4 4 5 2 5 6 6 6 5 9 8 20 3 9 13 14 19
39 36 32 29 27 22 16 17 13 11 11 10 3 4 10 3 14 15 13 11 5 1 6 4 8 2 7 2 3 4 6 6 4 6 4 6 8 7 8 10 10 15 18 14 16 18 14
Wind_Direction_500mb
24 23 22 20 21 23 24 19 14 11 11 8 4 6 5 2 358 345 328 312 299 293 290 280 268 244 207 231 244 211 235 183 181 174 180 183 190 204 204 196 172 237 142 69 145 144 149
15 14 12 9 12 17 21 20 15 12 13 11 11 12 18 28 32 28 16 359 335 313 297 284 250 220 215 239 238 233 221 171 175 176 184 188 200 201 214 201 215 151 144 119 148 140 134
8 2 1 359 360 5 15 18 16 14 13 13 17 19 31 38 37 31 31 30 21 8 338 290 241 197 236 243 248 253 165 165 171 175 178 180 201 201 198 180 161 145 152 130 150 151 125
4 358 350 348 351 352 1 13 15 14 12 12 15 17 18 24 21 20 17 12 7 27 39 17 187 182 247 246 230 140 156 166 164 155 182 182 170 210 237 112 183 183 172 181 153 155 167
355 356 350 341 341 345 351 2 8 9 11 10 8 13 5 1 6 6 3 356 355 2 27 25 70 207 131 67 138 148 144 159 164 160 157 188 190 210 196 211 191 197 184 151 138 185 158
350 349 349 341 333 341 350 349 351 1 7 5 3 358 358 352 351 359 356 353 360 346 333 41 48 233 143 111 149 146 148 158 162 160 150 183 202 204 211 211 202 188 213 165 151 161 167
346 341 346 345 340 339 346 343 339 345 357 356 357 352 347 347 344 348 352 357 0 99 310 286 329 307 106 115 136 155 145 150 171 181 185 190 208 206 193 213 359 298 231 153 139 153 150
339 341 345 349 344 345 339 341 336 332 342 348 349 348 339 339 344 342 341 330 351 316 308 260 254 244 219 153 153 160 155 157 179 190 182 175 219 204 201 199 239 223 216 115 125 151 157
344 343 346 352 350 343 342 342 337 326 332 338 341 340 337 338 347 214 324 276 321 336 267 102 155 144 161 177 172 174 180 166 190 198 203 208 191 177 206 199 207 216 207 159 153 167 182
351 345 348 355 352 343 345 345 337 328 332 331 337 338 339 348 87 328 327 322 321 317 221 91 143 131 148 185 162 174 185 179 188 204 211 235 132 183 207 206 216 174 233 150 148 178 180
354 354 357 360 357 352 349 353 344 334 330 328 335 340 346 307 230 356 299 322 327 235 301 42 80 103 176 227 134 181 186 205 197 190 198 186 187 192 200 209 209 75 171 173 178 222 147
4 4 4 3 4 356 357 359 347 338 331 329 336 351 43 75 245 281 326 328 296 231 80 84 72 329 193 202 169 152 185 224 253 203 217 360 209 199 193 180 204 191 169 168 172 254 230
18 8 4 5 3 357 359 359 354 341 335 334 339 28 72 99 209 304 327 302 235 35 171 33 360 317 288 167 158 174 187 193 194 196 189 179 191 189 211 198 197 208 180 176 199 202 250
2 2 3 6 1 358 359 360 355 345 341 342 12 98 144 270 287 307 311 249 49 35 29 7 320 270 247 190 154 182 187 197 212 245 183 198 181 197 196 216 188 210 211 213 206 210 211
0 0 2 3 360 357 358 359 356 351 344 5 104 104 29 356 17 333 252 343 26 26 4 343 261 276 165 188 261 176 196 208 192 226 245 205 223 180 202 215 216 193 225 237 274 254 258
2 359 359 0 358 356 357 0 358 356 348 48 134 129 41 71 29 308 259 75 80 9 335 302 352 343 294 184 215 212 168 220 218 202 270 182 221 194 200 214 214 236 198 211 241 217 231
356 357 357 357 355 354 357 1 0 359 351 123 144 183 32 44 79 259 61 63 25 48 350 325 357 330 338 268 266 169 105 98 223 185 243 242 260 164 187 204 196 195 224 221 245 238 257
352 355 356 356 353 354 357 0 1 3 360 138 206 182 72 28 218 10 66 16 334 19 40 326 295 14 354 327 248 177 320 9 341 253 213 221 244 194 199 199 242 203 214 203 228 191 256
347 350 355 357 352 352 356 359 1 7 17 127 222 94 41 8 297 123 133 121 7 12 32 5 9 10 3 101 101 26 127 7 353 219 286 195 235 209 169 187 206 229 213 231 216 244 220
345 345 350 353 352 352 352 354 2 9 18 135 226 185 145 71 45 312 289 54 21 52 43 7 2 230 201 173 165 217 312 19 8 62 42 229 273 272 259 193 187 203 208 223 240 228 235
345 345 345 348 348 347 347 349 359 9 19 109 284 78 10 145 108 105 286 327 339 357 359 14 83 25 351 106 155 152 227 305 143 60 57 317 259 247 77 81 159 201 201 200 225 242 264
344 343 341 342 343 339 349 345 355 3 20 66 245 203 143 110 144 241 148 40 44 75 359 41 29 33 45 72 18 79 334 348 356 316 284 8 130 226 116 109 142 133 161 199 224 246 259
339 339 336 333 337 334 349 340 344 6 22 47 66 138 250 151 186 270 43 114 71 296 69 35 341 287 99 41 359 25 172 111 105 268 318 148 333 249 138 142 177 145 41 56 146 172 320
338 332 330 324 330 326 341 339 327 2 29 45 322 149 245 149 229 111 156 152 126 48 15 26 360 271 37 332 179 231 157 154 58 76 106 243 174 304 198 272 208 57 38 3 11 37 344
331 327 322 312 317 314 321 333 308 321 356 29 9 177 242 187 139 160 172 156 186 187 250 17 56 0 317 254 242 193 190 209 134 52 56 82 168 268 273 191 293 162 44 24 359 75 9
328 324 312 304 293 297 296 311 298 291 302 303 356 201 241 217 196 145 162 195 277 257 176 126 67 328 297 271 233 247 234 0 211 167 119 93 303 256 221 227 222 32 7 339 319 163 22
326 323 312 295 284 272 273 282 281 261 252 233 348 179 167 227 152 168 198 35 255 262 283 145 39 229 263 213 161 253 192 322 251 252 221 215 250 257 179 245 104 37 316 329 245 39 351
323 321 314 290 273 260 254 258 257 247 237 214 260 347 168 237 142 147 134 156 182 241 281 98 226 191 212 222 225 144 231 134 244 315 330 280 274 234 259 257 192 2 171 328 356 338 350
318 318 317 293 263 252 240 244 244 235 228 202 221 278 154 158 131 140 125 129 108 27 305 191 346 12 25 158 186 165 189 191 216 217 177 235 342 349 331 43 81 53 60 32 6 347 347
Wind_Speed_850mb
30 28 26 25 26 28 31 31 29 26 27 30 33 30 28 24 18 14 12 12 13 15 15 12 9 8 8 11 11 11 5 23 38 41 46 40 34 26 18 14 18 8 7 20 33 46 33
29 28 25 24 24 26 28 30 30 28 27 28 31 29 27 24 21 18 15 13 12 12 11 9 7 7 7 18 13 13 10 30 38 37 43 37 29 22 14 14 20 9 15 35 40 30 13
32 26 24 23 22 23 24 27 28 28 27 27 29 26 24 24 26 26 24 23 21 15 9 5 6 9 13 9 5 7 19 32 36 29 37 32 22 23 8 16 10 19 16 24 42 30 12
34 29 24 23 22 21 21 22 26 27 26 25 25 22 18 20 23 26 25 22 20 16 16 6 2 7 8 9 10 5 20 32 36 26 28 24 15 17 17 6 14 22 17 14 28 31 23
35 32 26 23 22 21 20 21 22 23 25 24 23 20 17 17 20 25 26 23 23 7 9 9 5 3 8 3 7 19 19 30 37 22 16 20 13 22 16 23 20 20 16 21 22 43 26
39 31 28 22 20 21 21 19 20 22 24 24 22 19 16 16 17 21 24 23 20 7 12 7 2 7 5 10 16 23 18 31 34 27 19 20 23 21 20 21 24 25 18 28 27 22 35
45 31 27 24 20 19 19 17 18 21 23 23 23 21 19 15 14 14 16 18 13 1 10 10 6 9 9 10 21 21 28 24 27 31 21 28 23 34 35 28 15 13 15 20 24 24 28
37 32 24 25 20 18 17 16 17 21 23 24 24 22 22 15 11 5 9 6 10 13 13 7 9 13 11 10 21 28 28 20 28 28 24 18 30 31 25 17 15 18 20 26 23 33 15
34 32 25 24 21 17 16 15 16 19 23 26 25 23 23 14 6 1 9 7 18 17 12 7 4 6 13 16 21 39 33 16 26 29 32 26 18 18 24 24 20 15 17 26 27 27 18
37 33 25 23 20 18 18 15 15 19 23 27 27 25 19 10 4 6 4 17 28 16 8 13 10 9 11 14 15 32 35 16 14 27 29 22 13 28 29 30 24 22 3 11 25 30 12
37 29 24 23 21 20 19 15 16 19 24 27 24 23 11 4 2 4 11 24 22 4 1 7 11 3 7 12 32 29 35 18 20 21 20 16 22 35 33 29 20 11 11 15 24 8 19
29 26 25 26 21 22 19 16 17 20 25 26 23 15 7 3 2 5 17 24 4 13 10 5 3 2 15 19 15 37 36 23 2 16 28 2 28 26 25 19 20 3 18 13 8 7 15
27 29 30 26 22 23 20 19 18 22 24 23 18 7 7 5 3 14 20 7 12 10 4 8 7 5 7 16 18 31 33 30 18 21 27 15 25 18 19 28 24 25 27 14 16 13 7
34 34 31 26 23 23 22 21 21 24 22 20 7 5 1 6 11 13 12 15 8 6 9 6 7 8 10 8 18 25 30 27 11 23 22 27 28 31 23 27 25 35 35 16 20 19 18
33 35 32 28 24 24 24 22 25 24 21 12 8 6 5 8 5 5 15 4 9 7 9 15 10 10 12 14 6 18 24 25 23 18 16 24 23 36 21 27 21 32 37 33 30 12 20
34 35 32 29 26 25 25 24 27 23 18 6 9 7 7 8 8 1 6 10 7 9 11 8 12 6 9 13 17 18 20 10 13 12 21 6 20 24 32 31 33 29 28 27 18 20 25
33 35 32 29 25 26 26 26 27 24 12 4 8 8 3 10 8 6 8 13 6 9 11 11 12 8 4 6 18 13 7 8 9 21 14 17 17 24 28 31 33 22 26 28 28 28 17
33 35 32 29 27 26 26 27 28 25 11 5 3 5 0 8 7 4 10 8 5 9 6 3 7 9 7 8 2 7 9 14 10 16 21 21 15 16 37 26 25 42 34 35 23 23 23
33 33 32 28 26 24 24 25 26 26 13 7 2 8 2 5 3 5 8 5 8 14 16 11 7 10 6 2 2 4 5 9 18 11 6 11 17 18 16 19 17 28 32 36 40 34 31
34 31 30 26 26 23 21 21 23 24 15 6 4 8 7 5 5 8 1 3 2 8 8 7 11 5 7 7 5 8 3 9 12 9 5 8 8 22 7 28 32 35 23 32 26 25 28
33 30 29 24 22 21 19 19 21 20 14 6 1 5 4 4 7 4 3 5 8 9 5 12 5 13 7 1 17 23 15 20 9 6 4 6 4 10 10 12 8 16 30 30 30 36 25
35 31 27 22 19 19 18 15 18 17 12 8 2 5 4 7 6 8 4 6 8 7 13 8 7 12 13 15 14 4 6 7 7 13 3 10 4 6 12 9 9 17 9 12 9 12 15
36 31 26 21 17 17 17 12 12 16 11 5 3 7 4 9 7 7 5 3 5 0 7 12 9 7 6 13 9 5 5 5 6 10 9 4 10 9 16 1 14 21 13 9 5 3 12
33 32 27 21 16 16 14 12 9 10 11 8 2 2 8 10 8 6 9 6 5 7 7 10 7 9 7 8 2 3 6 3 6 12 3 12 6 12 6 8 21 17 8 9 9 8 6
37 31 28 23 13 15 13 10 9 6 5 9 8 1 5 6 7 14 12 6 8 4 2 8 8 6 9 7 12 9 13 11 9 8 10 0 6 6 10 19 12 8 15 14 14 11 11
43 34 28 24 15 12 13 10 8 7 4 4 9 7 3 5 11 13 12 6 8 2 10 4 2 6 5 7 8 11 4 3 5 12 3 5 2 11 15 7 14 13 10 14 14 8 19
41 36 29 24 21 12 13 11 8 8 5 2 5 3 4 7 11 13 5 2 0 6 6 4 2 6 7 4 3 4 5 5 6 8 2 6 6 11 8 10 15 10 11 5 11 9 22
39 36 31 28 24 17 14 14 10 10 8 7 6 4 9 4 12 8 7 5 6 7 9 10 9 10 7 6 4 4 4 4 5 2 5 6 6 6 5 9 8 20 3 9 13 14 19
39 36 32 29 27 22 16 17 13 11 11 10 3 4 10 3 14 15 13 11 5 1 6 4 8 2 7 2 3 4 6 6 4 6 4 6 8 7 8 10 10 15 18 14 16 18 14
Wind_Direction_850mb
24 23 22 20 21 23 24 19 14 11 11 8 4 6 5 2 358 345 328 312 299 293 290 280 268 244 207 231 244 211 235 183 181 174 180 183 190 204 204 196 172 237 142 69 145 144 149
15 14 12 9 12 17 21 20 15 12 13 11 11 12 18 28 32 28 16 359 335 313 297 284 250 220 215 239 238 233 221 171 175 176 184 188 200 201 214 201 215 151 144 119 148 140 134
8 2 1 359 360 5 15 18 16 14 13 13 17 19 31 38 37 31 31 30 21 8 338 290 241 197 236 243 248 253 165 165 171 175 178 180 201 201 198 180 161 145 152 130 150 151 125
4 358 350 348 351 352 1 13 15 14 12 12 15 17 18 24 21 20 17 12 7 27 39 17 187 182 247 246 230 140 156 166 164 155 182 182 170 210 237 112 183 183 172 181 153 155 167
355 356 350 341 341 345 351 2 8 9 11 10 8 13 5 1 6 6 3 356 355 2 27 25 70 207 131 67 138 148 144 159 164 160 157 188 190 210 196 211 191 197 184 151 138 185 158
350 349 349 341 333 341 350 349 351 1 7 5 3 358 358 352 351 359 356 353 360 346 333 41 48 233 143 111 149 146 148 158 162 160 150 183 202 204 211 211 202 188 213 165 151 161 167
346 341 346 345 340 339 346 343 339 345 357 356 357 352 347 347 344 348 352 357 0 99 310 286 329 307 106 115 136 155 145 150 171 181 185 190 208 206 193 213 359 298 231 153 139 153 150
339 341 345 349 344 345 339 341 336 332 342 348 349 348 339 339 344 342 341 330 351 316 308 260 254 244 219 153 153 160 155 157 179 190 182 175 219 204 201 199 239 223 216 115 125 151 157
344 343 346 352 350 343 342 342 337 326 332 338 341 340 337 338 347 214 324 276 321 336 267 102 155 144 161 177 172 174 180 166 190 198 203 208 191 177 206 199 207 216 207 159 153 167 182
351 345 348 355 352 343 345 345 337 328 332 331 337 338 339 348 87 328 327 322 321 317 221 91 143 131 148 185 162 174 185 179 188 204 211 235 132 183 207 206 216 174 233 150 148 178 180
354 354 357 360 357 352 349 353 344 334 330 328 335 340 346 307 230 356 299 322 327 235 301 42 80 103 176 227 134 181 186 205 197 190 198 186 187 192 200 209 209 75 171 173 178 222 147
4 4 4 3 4 356 357 359 347 338 331 329 336 351 43 75 245 281 326 328 296 231 80 84 72 329 193 202 169 152 185 224 253 203 217 360 209 199 193 180 204 191 169 168 172 254 230
18 8 4 5 3 357 359 359 354 341 335 334 339 28 72 99 209 304 327 302 235 35 171 33 360 317 288 167 158 174 187 193 194 196 189 179 191 189 211 198 197 208 180 176 199 202 250
2 2 3 6 1 358 359 360 355 345 341 342 12 98 144 270 287 307 311 249 49 35 29 7 320 270 247 190 154 182 187 197 212 245 183 198 181 197 196 216 188 210 211 213 206 210 211
0 0 2 3 360 357 358 359 356 351 344 5 104 104 29 356 17 333 252 343 26 26 4 343 261 276 165 188 261 176 196 208 192 226 245 205 223 180 202 215 216 193 225 237 274 254 258
2 359 359 0 358 356 357 0 358 356 348 48 134 129 41 71 29 308 259 75 80 9 335 302 352 343 294 184 215 212 168 220 218 202 270 182 221 194 200 214 214 236 198 211 241 217 231
356 357 357 357 355 354 357 1 0 359 351 123 144 183 32 44 79 259 61 63 25 48 350 325 357 330 338 268 266 169 105 98 223 185 243 242 260 164 187 204 196 195 224 221 245 238 257
352 355 356 356 353 354 357 0 1 3 360 138 206 182 72 28 218 10 66 16 334 19 40 326 295 14 354 327 248 177 320 9 341 253 213 221 244 194 199 199 242 203 214 203 228 191 256
347 350 355 357 352 352 356 359 1 7 17 127 222 94 41 8 297 123 133 121 7 12 32 5 9 10 3 101 101 26 127 7 353 219 286 195 235 209 169 187 206 229 213 231 216 244 220
345 345 350 353 352 352 352 354 2 9 18 135 226 185 145 71 45 312 289 54 21 52 43 7 2 230 201 173 165 217 312 19 8 62 42 229 273 272 259 193 187 203 208 223 240 228 235
345 345 345 348 348 347 347 349 359 9 19 109 284 78 10 145 108 105 286 327 339 357 359 14 83 25 351 106 155 152 227 305 143 60 57 317 259 247 77 81 159 201 201 200 225 242 264
344 343 341 342 343 339 349 345 355 3 20 66 245 203 143 110 144 241 148 40 44 75 359 41 29 33 45 72 18 79 334 348 356 316 284 8 130 226 116 109 142 133 161 199 224 246 259
339 339 336 333 337 334 349 340 344 6 22 47 66 138 250 151 186 270 43 114 71 296 69 35 341 287 99 41 359 25 172 111 105 268 318 148 333 249 138 142 177 145 41 56 146 172 320
338 332 330 324 330 326 341 339 327 2 29 45 322 149 245 149 229 111 156 152 126 48 15 26 360 271 37 332 179 231 157 154 58 76 106 243 174 304 198 272 208 57 38 3 11 37 344
331 327 322 312 317 314 321 333 308 321 356 29 9 177 242 187 139 160 172 156 186 187 250 17 56 0 317 254 242 193 190 209 134 52 56 82 168 268 273 191 293 162 44 24 359 75 9
328 324 312 304 293 297 296 311 298 291 302 303 356 201 241 217 196 145 162 195 277 257 176 126 67 328 297 271 233 247 234 0 211 167 119 93 303 256 221 227 222 32 7 339 319 163 22
326 323 312 295 284 272 273 282 281 261 252 233 348 179 167 227 152 168 198 35 255 262 283 145 39 229 263 213 161 253 192 322 251 252 221 215 250 257 179 245 104 37 316 329 245 39 351
323 321 314 290 273 260 254 258 257 247 237 214 260 347 168 237 142 147 134 156 182 241 281 98 226 191 212 222 225 144 231 134 244 315 330 280 274 234 259 257 192 2 171 328 356 338 350
318 318 317 293 263 252 240 244 244 235 228 202 221 278 154 158 131 140 125 129 108 27 305 191 346 12 25 158 186 165 189 191 216 217 177 235 342 349 331 43 81 53 60 32 6 347 347